Regional Weather Roundup
Issued by NWS Green Bay, WI

Home | Current Version | Previous Version | Graphics & Text | Print | Product List | Glossary Off
Versions: 1 2 3 4 5 6 7 8 9 10 11 12 13 14 15 16 17 18 19 20 21 22 23 24 25 26 27 28 29 30 31 32 33 34 35 36 37 38 39 40 41 42 43 44 45 46 47 48 49 50

000
ASUS43 KGRB 190610
RWRGRB

NORTH-CENTRAL AND NORTHEAST WISCONSIN REGIONAL WEATHER ROUNDUP
NATIONAL WEATHER SERVICE GREEN BAY WI
100 AM CDT SUN APR 19 2015

WIZ005-009-010>012-018-019-190700-
NORTH CENTRAL WISCONSIN

CITY           SKY/WX    TMP DP  RH WIND       PRES   REMARKS
IRONWOOD         N/A     52  12  20 SE15G24   29.97F
MANITOWISH WTR   N/A     47  21  35 SE8G18    30.01F
ARBOR VITAE    HAZE      49  24  36 SE13G23   30.01F VSB 3/4
EAGLE RIVER      N/A     44  25  46 SE9G17    30.04F
LAND O LAKES     N/A     44  27  52 SE9       30.05F
RHINELANDER      N/A     46  23  40 E17G24    30.03F
PHILLIPS       MOCLDY    49  13  23 SE10G18   29.98F
ANTIGO           N/A     43  26  50 E20G28    30.03F
TOMAHAWK         N/A     47  18  30 CALM      30.02F
MERRILL          N/A     48  22  36 E9        30.01F
$$

WIZ013-073-190700-
NORTHEAST WISCONSIN

CITY           SKY/WX    TMP DP  RH WIND       PRES   REMARKS
IRON MOUNTAIN    N/A     40  26  57 E3        30.08F
MARINETTE        N/A     41  30  65 E12       30.09S
OCONTO           N/A     42  32  66 E5        30.07F
$$

WIZ017-030-035>037-045-190700-
CENTRAL WISCONSIN

CITY           SKY/WX    TMP DP  RH WIND       PRES   REMARKS
MEDFORD          N/A     47  19  33 E13G20    29.96F
WAUSAU         MOCLDY    48  21  34 E17G26    29.99F
MOSINEE          N/A     45  21  39 E12       29.99F
MARSHFIELD       N/A     48  23  37 E14       29.96F
WISC RAPIDS      N/A     48  22  35 E13G18    29.99F
STEVENS POINT    N/A     45  23  42 E12       29.99F
WAUPACA          N/A     48  28  45 NE5       30.02F
SHAWANO          N/A     47  30  53 E6        30.06F
CLINTONVILLE     N/A     43  28  56 E7        30.04F
$$

WIZ038-039-048-051-190700-
FOX VALLEY

CITY           SKY/WX    TMP DP  RH WIND       PRES   REMARKS
NWS GREEN BAY    N/A     44  30  57 NE7       30.04F
APPLETON         N/A     45  27  49 E6        30.02F
OSHKOSH          N/A     48  31  51 E7        30.00F
FOND DU LAC      N/A     52  20  28 SE10G20   29.99F
$$

WIZ022-050-052-190700-
EAST CENTRAL WISCONSIN

CITY           SKY/WX    TMP DP  RH WIND       PRES   REMARKS
STURGEON BAY     N/A     45  28  53 SE13      30.10F
MANITOWOC        N/A     39  33  79 CALM      30.05F
SHEBOYGAN        N/A     40  31  70 NE5       30.03F
$$

LMZ563-521-522-541>543-190700-
LAKESHORE

STATION/POSITION TIME  TEMP    WIND        PRES    VSBY  WAVE
                       AIR SEA DIR/SP/G                  HT/PER
                 (UTC) (F)     (DEG/KT/KT) (MB)    (MI)  (FT/S)
SHEBOYGAN LKSHOR 0600   45      40/  5/  6 1017.6F
KEWAUNEE LKSHORE 0600   41      60/  3/  6 1017.6F
NORTHPORT PIER   0600   41     110/ 10/ 15 1019.6S
SISTER BAY LKSHO 0600   43     130/ 12/ 16   N/A
CHAMBERS ISLAND  0600   45      80/  6/ 11 1019.6S
MENOMINEE LKSHOR 0600   42      30/  8/ 11 1019.7S
$$


USA.gov is the U.S. government's official web portal to all federal, state and local government web resources and services.